Nome, AK

2:29 AM AKDT on June 23, 2017 (GMT -0800)
Nome

Weather History for PAOM - May, 2014

Change the Weather History Date:

Thursday, May 1, 2014

  Actual Average Record
Temperature  
Mean Temperature 36 °F 30 °F  
Max Temperature 38 °F 36 °F 56 °F (2004)
Min Temperature 34 °F 24 °F -10 °F (1964)
Degree Days  
Heating Degree Days 29 35  
Month to date heating degree days 29 35  
Since 1 July heating degree days 10895 12345  
Cooling Degree Days 0 0  
Month to date cooling degree days 0 0  
Year to date cooling degree days 0 0  
Moisture  
Dew Point 35 °F    
Average Humidity 0    
Maximum Humidity 0    
Minimum Humidity 0    
Precipitation  
Precipitation 0.01 in 0.03 in 0.63 in (1937)
Month to date precipitation 0.01 0.03  
Year to date precipitation 3.16 3.31  
Snow  
Snow 0.00 in 0.10 in 5.90 in (1937)
Month to date snowfall 0.0 0.1  
Since 1 July snowfall 69.7 73.2  
Snow Depth T in    
Sea Level Pressure  
Sea Level Pressure 30.46 in    
Wind  
Wind Speed 12 mph (ESE)    
Max Wind Speed 18 mph    
Max Gust Speed 23 mph    
Visibility 9 miles    
Events Rain    
T = Trace of Precipitation, MM = Missing Value Source: NWS Daily Summary

Daily Weather History Graph

Daily Weather History Graph

Search for Another Location

Airport or City:

Trip Planner

Search our weather history database for the weather conditions in past years. The results will help you decide how hot, cold, wet, or windy it might be!

Date:

Astronomy

May. 01, 2014 Rise Set
Actual Time 6:30 AM AKDT 11:29 PM AKDT
Civil Twilight 5:18 AM AKDT 12:43 AM AKDT
Nautical Twilight 3:31 AM AKDT 2:26 AM AKDT
Astronomical Twilight Sun does not set Sun does not set
Moon 8:03 AM AKDT (5/1) 1:40 AM AKDT (5/1)
Length of Visible Light 19h 24m
Length of Day
16h 59m
Waxing Crescent, 7% of the Moon is Illuminated
May 1
Waxing Crescent
May 6
First Quarter
May 14
Full
May 21
Last Quarter
May 28
New

Hourly Weather History & Observations

Time (AKDT) Temp. Windchill Dew Point Humidity Pressure Visibility Wind Dir Wind Speed Gust Speed Precip Events Conditions
12:53 AM 36.0 °F 27.5 °F 34.0 °F 93% 30.28 in 6.0 mi SE 12.7 mph - 0.01 in Rain Light Rain
1:53 AM 35.1 °F 26.4 °F 34.0 °F 96% 30.30 in 10.0 mi SE 12.7 mph - 0.01 in Rain Light Rain
2:53 AM 35.1 °F 25.9 °F 34.0 °F 96% 30.32 in 10.0 mi SE 13.8 mph - 0.00 in   Overcast
3:20 AM 35.1 °F 25.9 °F 34.0 °F 96% 30.32 in 10.0 mi SE 13.8 mph - N/A   Overcast
3:53 AM 35.1 °F 26.4 °F 34.0 °F 96% 30.34 in 10.0 mi ESE 12.7 mph - N/A   Overcast
4:53 AM 35.1 °F 25.2 °F 34.0 °F 96% 30.35 in 10.0 mi SE 16.1 mph - N/A   Overcast
5:53 AM 35.1 °F 25.5 °F 34.0 °F 96% 30.36 in 10.0 mi SSE 15.0 mph - N/A   Overcast
6:53 AM 35.1 °F 25.2 °F 34.0 °F 96% 30.37 in 10.0 mi SSE 16.1 mph - N/A   Overcast
7:53 AM 35.1 °F 25.2 °F 34.0 °F 96% 30.38 in 9.0 mi SSE 16.1 mph - N/A   Overcast
8:18 AM 35.1 °F 24.8 °F 34.0 °F 96% 30.38 in 8.0 mi SSE 17.3 mph - N/A   Overcast
8:53 AM 34.0 °F 24.6 °F 34.0 °F 100% 30.40 in 7.0 mi SE 13.8 mph - N/A   Overcast
9:53 AM 34.0 °F 23.8 °F 34.0 °F 100% 30.42 in 7.0 mi SE 16.1 mph - N/A   Overcast
10:53 AM 34.0 °F 24.6 °F 33.1 °F 96% 30.43 in 7.0 mi SE 13.8 mph - N/A   Overcast
11:53 AM 34.0 °F 25.0 °F 34.0 °F 100% 30.46 in 7.0 mi SE 12.7 mph - N/A   Overcast
12:53 PM 34.0 °F 25.0 °F 34.0 °F 100% 30.48 in 7.0 mi ESE 12.7 mph - N/A   Overcast
1:53 PM 35.1 °F 26.4 °F 34.0 °F 96% 30.49 in 10.0 mi SE 12.7 mph - N/A   Overcast
2:53 PM 35.1 °F 26.4 °F 34.0 °F 96% 30.50 in 7.0 mi SE 12.7 mph - N/A   Overcast
3:53 PM 36.0 °F 28.5 °F 35.1 °F 97% 30.51 in 7.0 mi ESE 10.4 mph - N/A   Overcast
4:40 PM 36.0 °F 28.5 °F 35.1 °F 97% 30.52 in 7.0 mi ESE 10.4 mph - N/A   Overcast
4:53 PM 36.0 °F 28.0 °F 35.1 °F 97% 30.52 in 7.0 mi ESE 11.5 mph - N/A   Overcast
5:53 PM 37.0 °F 30.4 °F 35.1 °F 93% 30.52 in 10.0 mi ESE 9.2 mph - N/A   Overcast
6:53 PM 37.9 °F 30.5 °F 36.0 °F 93% 30.54 in 10.0 mi East 11.5 mph - N/A   Overcast
7:09 PM 37.9 °F 32.7 °F 36.0 °F 93% 30.53 in 10.0 mi ESE 6.9 mph - N/A   Overcast
7:53 PM 37.9 °F 32.7 °F 36.0 °F 93% 30.54 in 10.0 mi ESE 6.9 mph - N/A   Overcast
8:53 PM 37.9 °F 32.7 °F 36.0 °F 93% 30.54 in 10.0 mi ESE 6.9 mph - N/A   Overcast
9:20 PM 37.9 °F 33.5 °F 36.0 °F 93% 30.54 in 10.0 mi ESE 5.8 mph - N/A   Overcast
9:28 PM 37.9 °F 33.5 °F 36.0 °F 93% 30.54 in 10.0 mi East 5.8 mph - N/A   Overcast
9:53 PM 37.9 °F 33.5 °F 36.0 °F 93% 30.54 in 10.0 mi East 5.8 mph - N/A   Overcast
10:00 PM 37.9 °F 34.4 °F 36.0 °F 93% 30.54 in 10.0 mi SE 4.6 mph - N/A   Overcast
10:09 PM 37.9 °F 34.4 °F 36.0 °F 93% 30.53 in 10.0 mi SE 4.6 mph - N/A   Overcast
10:53 PM 37.0 °F 32.4 °F 36.0 °F 96% 30.53 in 10.0 mi East 5.8 mph - N/A   Overcast
11:21 PM 37.0 °F 32.4 °F 36.0 °F 96% 30.53 in 10.0 mi East 5.8 mph - N/A   Overcast
11:49 PM 37.4 °F 32.1 °F 35.6 °F 93% 30.54 in 10.0 mi ESE 6.9 mph - N/A   Mostly Cloudy
11:53 PM 37.0 °F 31.6 °F 35.1 °F 93% 30.54 in 10.0 mi ESE 6.9 mph - N/A   Mostly Cloudy